This demonstration page uses our WeatherBlox Daily Observations layout. Learn more.

Left ArrowRight Arrow

Hourly Observations for February 3, 2019

Temp ( °F °C ) Dew Point ( °F °C ) Humidity (%) Winds ( mph kmh ) Pressure ( in mb ) Visibility ( mi km ) Precip ( " mm )
12:52 am 00:52 Mostly Cloudy with Fog 39 3.9 38 3.3 96 96 SSE 10 17 29.72 1007 0 0 0.00 0.00
1:52 am 01:52 Mostly Cloudy with Fog 39 3.9 38 3.3 96 96 SSE 12 19 29.71 1006 0 0 0.00 0.00
2:52 am 02:52 Mostly Cloudy with Fog 40 4.4 39 3.9 97 97 SSE 10 17 29.71 1006 1 1 0.00 0.00
3:31 am 03:31 Mostly Cloudy with Fog 41 5 40 4.4 96 96 SE 10 17 29.73 1007 0 0 0.00 0.00
3:52 am 03:52 Mostly Cloudy with Fog 42 5.6 40 4.4 92 92 SE 12 19 29.71 1006 0 0 0.00 0.00
4:52 am 04:52 Mostly Cloudy with Fog 43 6.1 42 5.6 97 97 SSE 12 19 29.70 1006 0 0 0.00 0.00
5:52 am 05:52 Mostly Cloudy with Fog 42 5.6 41 5 96 96 SSE 10 17 29.71 1006 0 0 0.00 0.00
6:52 am 06:52 Mostly Cloudy with Fog 42 5.6 41 5 96 96 SSE 9 15 29.70 1006 0 0 0.00 0.00
7:52 am 07:52 Mostly Cloudy with Fog 44 6.7 42 5.6 93 93 SSE 12 19 29.70 1006 0 0 0.00 0.00
8:45 am 08:45 Mostly Cloudy with Fog 46 7.8 44 6.7 93 93 SSE 12 19 29.71 1006 1 1 0.00 0.00
8:52 am 08:52 Mostly Cloudy with Fog 46 7.8 45 7.2 96 96 S 10 17 29.70 1006 1 1 0.00 0.00
9:52 am 09:52 Mostly Cloudy with Fog 47 8.3 45 7.2 93 93 S 10 17 29.70 1006 1 1 0.00 0.00
10:44 am 10:44 Cloudy with Mist and Fog 48 8.9 46 7.8 93 93 S 12 19 29.70 1006 1 2 0.00 0.00
10:52 am 10:52 Cloudy with Mist and Fog 48 8.9 47 8.3 96 96 S 12 19 29.69 1005 1 2 0.00 0.00
11:16 am 11:16 Cloudy with Mist and Fog 48 8.9 47 8.3 96 96 S 12 19 29.69 1005 2 3 0.00 0.00
11:52 am 11:52 Cloudy with Mist and Fog 49 9.4 47 8.3 93 93 SSE 10 17 29.66 1005 2 3 0.00 0.00
11:54 am 11:54 Cloudy with Mist and Fog 49 9.4 47 8.3 93 93 SSE 12 19 29.66 1005 2 3 0.00 0.00
12:40 pm 12:40 Cloudy with Mist and Fog 50 10 48 8.9 93 93 SSE 12 19 29.64 1004 3 5 0.00 0.00
12:52 pm 12:52 Cloudy with Mist and Fog 50 10 48 8.9 93 93 SSE 10 17 29.63 1003 3 5 0.00 0.00
1:52 pm 13:52 Cloudy with Mist and Fog 52 11.1 49 9.4 89 89 SSE 10 17 29.59 1002 4 6 0.00 0.00
2:52 pm 14:52 Cloudy with Mist and Fog 53 11.7 49 9.4 86 86 ESE 9 15 29.55 1001 5 8 0.00 0.00
3:39 pm 15:39 Cloudy with Mist and Fog 53 11.7 50 10 89 89 SE 9 15 29.53 1000 4 6 0.00 0.00
3:52 pm 15:52 Cloudy with Mist and Fog 53 11.7 50 10 89 89 SE 9 15 29.54 1000 4 6 0.00 0.00
4:45 pm 16:45 Cloudy with Mist and Fog 53 11.7 50 10 89 89 SE 9 15 29.53 1000 4 6 0.00 0.00
4:52 pm 16:52 Cloudy with Mist and Fog 53 11.7 50 10 89 89 SE 6 9 29.53 1000 4 6 0.00 0.00
5:22 pm 17:22 Cloudy with Mist and Fog 53 11.7 50 10 89 89 SE 3 6 29.53 1000 4 6 0.00 0.00
5:52 pm 17:52 Cloudy with Mist and Fog 52 11.1 49 9.4 89 89 SE 6 9 29.53 1000 5 8 0.00 0.00
6:34 pm 18:34 Cloudy with Mist and Fog 51 10.6 48 8.9 89 89 SE 7 11 29.53 1000 6 10 0.00 0.00
6:52 pm 18:52 Cloudy with Mist and Fog 50 10 48 8.9 93 93 SE 7 11 29.53 1000 6 10 0.00 0.00
7:52 pm 19:52 Cloudy with Mist and Fog 50 10 48 8.9 93 93 ESE 8 13 29.53 1000 6 10 0.00 0.00
8:52 pm 20:52 Cloudy with Mist and Fog 48 8.9 46 7.8 93 93 SSE 6 9 29.53 1000 6 10 0.00 0.00
9:52 pm 21:52 Mostly Cloudy 50 10 47 8.3 89 89 S 8 13 29.52 1000 7 11 0.00 0.00
10:52 pm 22:52 Cloudy 48 8.9 45 7.2 89 89 N 15 24 29.56 1001 7 11 0.00 0.00
10:59 pm 22:59 Cloudy with Mist and Fog 41 5 38 3.3 89 89 N 15 24 29.60 1002 3 4 0.00 0.00
11:04 pm 23:04 Cloudy with Mist and Fog 39 3.9 37 2.8 93 93 N 20 31 29.62 1003 1 2 0.00 0.00
11:46 pm 23:46 Cloudy with Mist and Fog 34 1 32 0 93 93 NNW 18 30 29.65 1004 1 1 0.00 0.00
11:52 pm 23:52 Cloudy with Mist and Fog 34 1.1 32 0 92 92 NNW 18 30 29.61 1003 1 1 0.00 0.00

Powered by AerisWeather